Weather History for Houston Clover, TX

Change the Weather History Date:

Friday, September 27, 2013

  Actual Average (KHOU) Record (KHOU)
Temperature  
Mean Temperature 81 °F 77 °F  
Max Temperature 89 °F 87 °F 100 °F (2005)
Min Temperature 73 °F 66 °F 45 °F (1942)
Degree Days  
Heating Degree Days 0 0  
Month to date heating degree days 0  
Since 1 July heating degree days 0  
Cooling Degree Days 16 12  
Month to date cooling degree days 410  
Year to date cooling degree days 2792  
Growing Degree Days 31 (Base 50)    
Moisture  
Dew Point 72 °F    
Average Humidity 71    
Maximum Humidity 85    
Minimum Humidity 58    
Precipitation  
Precipitation 0.00 in 0.13 in 3.46 in (1944)
Month to date precipitation 3.74  
Year to date precipitation 35.61  
Sea Level Pressure  
Sea Level Pressure 29.93 in    
Wind  
Wind Speed 5 mph (SE)    
Max Wind Speed 15 mph    
Max Gust Speed 23 mph    
Visibility 10 miles    
Events      
T = Trace of Precipitation, MM = Missing Value Source: NWS Daily Summary

Daily Weather History Graph

Daily Weather History Graph

Search for Another Location

Airport:

Trip Planner

Search our weather history database for the weather conditions in past years. The results will help you decide how hot, cold, wet, or windy it might be!

Date:

Astronomy

Sep. 27, 2013 Rise Set
Actual Time 7:12 AM CDT 7:11 PM CDT
Civil Twilight 6:48 AM CDT 7:34 PM CDT
Nautical Twilight 6:20 AM CDT 8:02 PM CDT
Astronomical Twilight 5:53 AM CDT 8:30 PM CDT
Moon 12:33 AM CDT (9/27) 2:26 PM CDT (9/27)
Length of Visible Light 12h 46m
Length of Day
11h 58m
Last Quarter, 45% of the Moon is Illuminated
Sep 27
Last Quarter
Oct 4
New
Oct 11
First Quarter
Oct 18
Full
Oct 26
Last Quarter

Hourly Weather History & Observations

Time (CDT) Temp. Heat Index Dew Point Humidity Pressure Visibility Wind Dir Wind Speed Gust Speed Precip Events Conditions
12:53 AM 77.0 °F - 69.1 °F 76% 29.91 in 10.0 mi Calm Calm - N/A   Mostly Cloudy
1:53 AM 75.9 °F - 69.1 °F 79% 29.91 in 10.0 mi Calm Calm - N/A   Clear
2:53 AM 73.9 °F - 68.0 °F 82% 29.91 in 10.0 mi Calm Calm - N/A   Clear
3:53 AM 73.0 °F - 68.0 °F 84% 29.90 in 9.0 mi Calm Calm - N/A   Clear
4:53 AM 75.0 °F - 69.1 °F 82% 29.90 in 10.0 mi Calm Calm - N/A   Clear
5:53 AM 73.9 °F - 69.1 °F 85% 29.91 in 9.0 mi Calm Calm - N/A   Clear
6:53 AM 75.0 °F - 70.0 °F 84% 29.93 in 9.0 mi Calm Calm - N/A   Clear
7:53 AM 75.9 °F - 71.1 °F 85% 29.94 in 8.0 mi Calm Calm - N/A   Clear
8:53 AM 82.9 °F 89.4 °F 73.9 °F 74% 29.95 in 10.0 mi ESE 8.1 mph - N/A   Partly Cloudy
9:53 AM 84.9 °F 91.4 °F 73.0 °F 67% 29.96 in 10.0 mi SE 10.4 mph - N/A   Clear
10:53 AM 88.0 °F 95.6 °F 73.0 °F 61% 29.96 in 10.0 mi SE 11.5 mph - N/A   Scattered Clouds
11:53 AM 88.0 °F 94.7 °F 72.0 °F 59% 29.96 in 10.0 mi ESE 11.5 mph - N/A   Overcast
12:40 PM 87.8 °F 93.8 °F 71.6 °F 58% 29.95 in 10.0 mi SE 11.5 mph 19.6 mph N/A   Overcast
12:51 PM 87.8 °F 95.6 °F 73.4 °F 62% 29.95 in 10.0 mi ESE 12.7 mph 19.6 mph N/A   Overcast
12:53 PM 88.0 °F 95.6 °F 73.0 °F 61% 29.95 in 10.0 mi SE 15.0 mph 20.7 mph N/A   Overcast
1:53 PM 88.0 °F 94.7 °F 72.0 °F 59% 29.94 in 10.0 mi SSE 12.7 mph - N/A   Overcast
2:53 PM 86.0 °F 93.0 °F 73.0 °F 65% 29.92 in 10.0 mi SSE 12.7 mph - N/A   Overcast
3:53 PM 87.1 °F 94.5 °F 73.0 °F 63% 29.91 in 10.0 mi SE 13.8 mph 23.0 mph N/A   Mostly Cloudy
4:00 PM 89.6 °F 98.2 °F 73.4 °F 59% 29.91 in 10.0 mi SE 13.8 mph - N/A   Mostly Cloudy
4:53 PM 86.0 °F 93.0 °F 73.0 °F 65% 29.90 in 10.0 mi SE 13.8 mph - N/A   Mostly Cloudy
5:53 PM 84.9 °F 91.4 °F 73.0 °F 67% 29.91 in 10.0 mi SE 15.0 mph - N/A   Clear
6:53 PM 84.0 °F 90.2 °F 73.0 °F 69% 29.91 in 10.0 mi SE 11.5 mph - N/A   Clear
7:53 PM 82.9 °F 88.8 °F 73.0 °F 72% 29.92 in 10.0 mi SE 8.1 mph - N/A   Clear
8:53 PM 82.0 °F 86.7 °F 72.0 °F 71% 29.94 in 10.0 mi ESE 6.9 mph - N/A   Clear
9:53 PM 81.0 °F 85.2 °F 72.0 °F 74% 29.94 in 10.0 mi SE 5.8 mph - N/A   Clear
10:53 PM 81.0 °F 85.2 °F 72.0 °F 74% 29.95 in 10.0 mi SE 8.1 mph - N/A   Clear
11:53 PM 80.1 °F 83.8 °F 72.0 °F 76% 29.94 in 10.0 mi SE 5.8 mph - N/A   Clear